• In Romania
  • List of Countries
  • For 7 days
  • Water Temperature
  • Satellite Maps
  • Weather Map
  • Weather Widgets
  • user-avatar
    Login

    Hourly Weather Primorsko

    Today, 19 June, Tuesday

    Time Temperature Precipitation Wind Pressure Humidity
    00:00 +19°C° 0 mm 4 mps 757 mmHg 84%
    01:00 +19°C° 0 mm 4 mps 757 mmHg 84%
    02:00 +18°C° 0 mm 4 mps 757 mmHg 85%
    03:00 +18°C° 0 mm 4 mps 757 mmHg 84%
    04:00 +17°C° 0 mm 5 mps 757 mmHg 84%
    05:00 +17°C° 0 mm 5 mps 758 mmHg 83%
    06:00 +20°C° 0.1 mm 5 mps 758 mmHg 74%
    07:00 +22°C° 0.1 mm 5 mps 758 mmHg 65%
    08:00 +26°C° 0 mm 5 mps 758 mmHg 56%
    09:00 +27°C° 0 mm 6 mps 758 mmHg 51%
    10:00 +29°C° 0 mm 6 mps 758 mmHg 46%
    11:00 +30°C° 0 mm 7 mps 759 mmHg 40%
    12:00 +30°C° 0 mm 7 mps 759 mmHg 39%
    13:00 +32°C° 0 mm 7 mps 759 mmHg 37%
    14:00 +32°C° 0 mm 6 mps 759 mmHg 36%
    15:00 +30°C° 0 mm 6 mps 759 mmHg 38%
    16:00 +30°C° 0 mm 6 mps 759 mmHg 40%
    17:00 +29°C° 0 mm 6 mps 759 mmHg 42%
    18:00 +27°C° 0 mm 5 mps 759 mmHg 50%
    19:00 +25°C° 0 mm 5 mps 759 mmHg 58%
    20:00 +22°C° 0 mm 4 mps 759 mmHg 66%
    21:00 +21°C° 0 mm 4 mps 760 mmHg 71%
    22:00 +21°C° 0 mm 3 mps 760 mmHg 75%
    23:00 +20°C° 0 mm 3 mps 760 mmHg 79%

    Tomorrow, 20 June, Wednesday

    Time Temperature Precipitation Wind Pressure Humidity
    00:00 +19°C° 0 mm 3 mps 760 mmHg 78%
    01:00 +19°C° 0 mm 3 mps 760 mmHg 78%
    02:00 +19°C° 0 mm 4 mps 761 mmHg 77%
    03:00 +18°C° 0 mm 4 mps 761 mmHg 74%
    04:00 +18°C° 0 mm 4 mps 761 mmHg 71%
    05:00 +18°C° 0 mm 4 mps 761 mmHg 68%
    06:00 +20°C° 0 mm 5 mps 761 mmHg 61%
    07:00 +23°C° 0 mm 5 mps 761 mmHg 54%
    08:00 +26°C° 0 mm 5 mps 761 mmHg 48%
    09:00 +28°C° 0 mm 5 mps 761 mmHg 43%
    10:00 +29°C° 0 mm 6 mps 761 mmHg 39%
    11:00 +32°C° 0 mm 6 mps 762 mmHg 35%
    12:00 +32°C° 0 mm 6 mps 762 mmHg 34%
    13:00 +33°C° 0 mm 6 mps 761 mmHg 33%
    14:00 +33°C° 0 mm 6 mps 761 mmHg 32%
    15:00 +32°C° 0 mm 6 mps 761 mmHg 35%
    16:00 +32°C° 0 mm 5 mps 761 mmHg 38%
    17:00 +30°C° 0 mm 5 mps 761 mmHg 41%
    18:00 +28°C° 0 mm 5 mps 761 mmHg 50%
    19:00 +25°C° 0 mm 4 mps 761 mmHg 60%
    20:00 +22°C° 0 mm 4 mps 761 mmHg 69%
    21:00 +22°C° 0 mm 3 mps 762 mmHg 74%
    22:00 +21°C° 0 mm 3 mps 762 mmHg 78%
    23:00 +20°C° 0 mm 3 mps 762 mmHg 83%

    Day after tomorrow, 21 June, Thursday

    Time Temperature Precipitation Wind Pressure Humidity
    00:00 +20°C° 0 mm 3 mps 762 mmHg 82%
    01:00 +20°C° 0 mm 3 mps 762 mmHg 82%
    02:00 +19°C° 0 mm 3 mps 761 mmHg 81%
    03:00 +19°C° 0 mm 3 mps 761 mmHg 79%
    04:00 +19°C° 0 mm 3 mps 761 mmHg 77%
    05:00 +19°C° 0 mm 3 mps 761 mmHg 75%
    06:00 +21°C° 0 mm 4 mps 761 mmHg 67%
    07:00 +25°C° 0 mm 4 mps 761 mmHg 58%
    08:00 +27°C° 0 mm 4 mps 761 mmHg 49%
    09:00 +28°C° 0 mm 4 mps 761 mmHg 45%
    10:00 +30°C° 0 mm 4 mps 760 mmHg 42%
    11:00 +32°C° 0 mm 4 mps 760 mmHg 38%
    12:00 +33°C° 0 mm 4 mps 760 mmHg 38%
    13:00 +33°C° 0 mm 4 mps 759 mmHg 38%
    14:00 +34°C° 0 mm 4 mps 759 mmHg 38%
    15:00 +33°C° 0 mm 4 mps 758 mmHg 40%
    16:00 +33°C° 0 mm 3 mps 758 mmHg 41%
    17:00 +31°C° 0 mm 3 mps 758 mmHg 43%
    18:00 +29°C° 0 mm 2 mps 758 mmHg 52%
    19:00 +27°C° 0 mm 2 mps 758 mmHg 61%
    20:00 +24°C° 0 mm 1 mps 758 mmHg 70%
    21:00 +23°C° 0 mm 1 mps 758 mmHg 71%
    22:00 +23°C° 0 mm 1 mps 758 mmHg 72%
    23:00 +20°C° 0 mm 0 mps 758 mmHg 73%

    22 June, Friday

    Time Temperature Precipitation Wind Pressure Humidity
    00:00 +22°C° 0 mm 1 mps 758 mmHg 72%
    01:00 +22°C° 0 mm 1 mps 757 mmHg 70%
    02:00 +21°C° 0 mm 1 mps 757 mmHg 68%
    03:00 +21°C° 0 mm 1 mps 757 mmHg 68%
    04:00 +20°C° 0 mm 2 mps 757 mmHg 68%
    05:00 +20°C° 0 mm 2 mps 756 mmHg 68%
    06:00 +23°C° 0 mm 2 mps 756 mmHg 62%
    07:00 +26°C° 0 mm 1 mps 756 mmHg 56%
    08:00 +28°C° 0 mm 1 mps 756 mmHg 50%
    09:00 +30°C° 0 mm 1 mps 756 mmHg 46%
    10:00 +32°C° 0 mm 1 mps 756 mmHg 42%
    11:00 +34°C° 0 mm 1 mps 756 mmHg 38%
    12:00 +34°C° 0 mm 2 mps 756 mmHg 39%
    13:00 +34°C° 0 mm 2 mps 755 mmHg 40%
    14:00 +34°C° 0 mm 3 mps 755 mmHg 41%
    15:00 +33°C° 0 mm 3 mps 755 mmHg 42%
    16:00 +31°C° 0 mm 3 mps 755 mmHg 44%
    17:00 +31°C° 0 mm 3 mps 754 mmHg 45%
    18:00 +30°C° 0 mm 3 mps 755 mmHg 48%
    19:00 +28°C° 0 mm 3 mps 755 mmHg 52%
    20:00 +27°C° 0 mm 3 mps 755 mmHg 55%
    21:00 +26°C° 0.1 mm 3 mps 755 mmHg 59%
    22:00 +25°C° 0.1 mm 4 mps 755 mmHg 64%
    23:00 +23°C° 0.1 mm 4 mps 755 mmHg 69%

    23 June, Saturday

    Time Temperature Precipitation Wind Pressure Humidity
    00:00 +22°C° 0.2 mm 5 mps 756 mmHg 73%
    01:00 +21°C° 0.2 mm 7 mps 756 mmHg 78%
    02:00 +20°C° 0.2 mm 8 mps 756 mmHg 83%
    03:00 +18°C° 0.4 mm 8 mps 756 mmHg 84%
    04:00 +17°C° 0.4 mm 7 mps 757 mmHg 85%
    05:00 +17°C° 0.4 mm 7 mps 757 mmHg 85%
    06:00 +17°C° 0.1 mm 8 mps 758 mmHg 81%
    07:00 +18°C° 0.1 mm 8 mps 759 mmHg 76%
    08:00 +18°C° 0.1 mm 9 mps 759 mmHg 71%
    09:00 +21°C° 0 mm 8 mps 760 mmHg 66%
    10:00 +22°C° 0 mm 8 mps 760 mmHg 61%
    11:00 +23°C° 0 mm 7 mps 760 mmHg 57%
    12:00 +24°C° 0 mm 7 mps 761 mmHg 56%
    13:00 +24°C° 0 mm 6 mps 761 mmHg 55%
    14:00 +24°C° 0 mm 6 mps 761 mmHg 54%
    15:00 +24°C° 0 mm 6 mps 761 mmHg 54%
    16:00 +25°C° 0 mm 5 mps 761 mmHg 54%
    17:00 +25°C° 0 mm 5 mps 761 mmHg 55%
    18:00 +22°C° 0 mm 5 mps 761 mmHg 59%
    19:00 +21°C° 0 mm 4 mps 761 mmHg 63%
    20:00 +20°C° 0 mm 4 mps 762 mmHg 68%
    21:00 +19°C° 0.1 mm 4 mps 762 mmHg 72%
    22:00 +19°C° 0.1 mm 3 mps 762 mmHg 76%
    23:00 +18°C° 0.1 mm 3 mps 762 mmHg 80%

    24 June, Sunday

    Time Temperature Precipitation Wind Pressure Humidity
    00:00 +18°C° 0.1 mm 3 mps 762 mmHg 81%
    01:00 +18°C° 0.1 mm 3 mps 762 mmHg 81%
    02:00 +17°C° 0.1 mm 3 mps 762 mmHg 82%
    03:00 +17°C° 0 mm 3 mps 762 mmHg 82%
    04:00 +17°C° 0 mm 4 mps 762 mmHg 82%
    05:00 +17°C° 0 mm 4 mps 762 mmHg 81%
    06:00 +18°C° 0 mm 4 mps 762 mmHg 78%
    07:00 +20°C° 0 mm 4 mps 762 mmHg 74%
    08:00 +21°C° 0 mm 5 mps 762 mmHg 71%
    09:00 +22°C° 0.1 mm 5 mps 762 mmHg 68%
    10:00 +23°C° 0.1 mm 5 mps 762 mmHg 65%
    11:00 +25°C° 0.1 mm 5 mps 762 mmHg 63%
    12:00 +26°C° 0 mm 5 mps 762 mmHg 59%
    13:00 +26°C° 0 mm 5 mps 762 mmHg 55%
    14:00 +27°C° 0 mm 5 mps 761 mmHg 52%
    15:00 +27°C° 0 mm 5 mps 761 mmHg 53%
    16:00 +26°C° 0 mm 6 mps 761 mmHg 54%
    17:00 +26°C° 0 mm 6 mps 761 mmHg 56%
    18:00 +23°C° 0 mm 5 mps 761 mmHg 63%
    19:00 +21°C° 0 mm 5 mps 761 mmHg 71%
    20:00 +20°C° 0 mm 4 mps 761 mmHg 78%
    21:00 +19°C° 0 mm 4 mps 761 mmHg 81%
    22:00 +19°C° 0 mm 4 mps 762 mmHg 85%
    23:00 +18°C° 0 mm 4 mps 762 mmHg 88%
    Show more